Regional Weather Roundup
Issued by NWS Albany, NY

Home | Current Version | Previous Version | Text Only | Print | Product List | Glossary On
Versions: 1 2 3 4 5 6 7 8 9 10 11 12 13 14 15 16 17 18 19 20 21 22 23 24 25 26 27 28 29 30 31 32 33 34 35 36 37 38 39 40 41 42 43 44 45 46 47 48 49 50
000
ASUS41 KALY 131710
RWRALY

NEW YORK STATE HOURLY WEATHER ROUNDUP
NATIONAL WEATHER SERVICE ALBANY NY
1200 PM EST WED DEC 13 2017

NOTE: "FAIR" INDICATES FEW OR NO CLOUDS BELOW 12,000 FEET WITH NO
SIGNIFICANT WEATHER AND/OR NO OBSTRUCTIONS TO VISIBILITY.

NYZ032-033-038>043-046>054-057>066-NYZ062>081-082-084-131800-
EAST


CITY           SKY/WX    TMP DP  RH WIND       PRES   REMARKS
ALBANY         MOSUNNY   19   6  57 NW28G40   29.45S WCI   1
GLENS FALLS    MOSUNNY   18   5  57 W7G18     29.39S WCI   9
POUGHKEEPSIE   CLOUDY    23   5  46 W20G29    29.50S WCI   8
NEWBURGH       PTSUNNY   23  10  58 W29G46    29.50S WCI   6
MONTGOMERY     CLOUDY    23   6  48 NW24G39   29.51R WCI   7
WHITE PLAINS   PTSUNNY   23   9  55 NW26      29.48S WCI   6
ISLIP          CLOUDY    25   8  48 W17G36    29.50F WCI  12
NEW YORK CITY  PTSUNNY   28   9  44 NW23G41   29.55S WCI  14
CENTRAL PARK   CLOUDY    26   7  44 W14G30    29.56F WCI  14
$$

NYZ005>009-017-018-044>046-055-056-131800-
CENTRAL


CITY           SKY/WX    TMP DP  RH WIND       PRES   REMARKS
FULTON         LGT SNOW  18  13  80 W17G26    29.58S VSB 3/4 WCI   3
SYRACUSE       LGT SNOW  18  14  84 W21G26    29.58R BLWGSNOWWCI   1
ROME           LGT SNOW  16  10  77 W21G31    29.54R WCI  -1
ELMIRA         SUNNY     23   5  46 W20G31    29.61S WCI   8
BINGHAMTON     CLOUDY    15   5  64 NW16G26   29.50F WCI  -1
MONTICELLO     PTSUNNY   17   6  62 NW22G33   29.46  WCI   0
$$

NYZ026>034-041>043-087-131800-
NORTH


CITY           SKY/WX    TMP DP  RH WIND       PRES   REMARKS
WATERTOWN      LGT SNOW  11   5  77 W14       29.57S WCI  -5
FORT DRUM      NOT AVBL
OGDENSBURG     PTSUNNY   12   3  67 W17       29.51S WCI  -5
MASSENA        CLOUDY     9   1  70 W20G28    29.49R WCI -10
SARANAC LAKE   CLOUDY     3  -2  79 SW10G20   29.30S HAZE    WCI -12
PLATTSBURGH    PTSUNNY   13  -1  54 W9G25     29.35F WCI   1
$$

NYZ001>004-010>016-019>021-085-131800-
WEST


CITY           SKY/WX    TMP DP  RH WIND       PRES   REMARKS
NIAGARA FALLS  MOSUNNY   18   6  59 W13       29.71F WCI   5
BUFFALO        MOSUNNY   17   7  64 W14       29.70F WCI   3
DUNKIRK        CLOUDY    21  11  65 W14G21    29.72F WCI   8
JAMESTOWN      LGT SNOW  16  10  77 W13       29.65F WCI   2
WELLSVILLE     LGT SNOW  16   7  67 W15G22    29.58S WCI   1
ROCHESTER      FLURRIES  18   9  68 NW17G30   29.66F WCI   3
PENN YAN       SUNNY     19   4  51 W13G26    29.61R WCI   6
$$

             KEY
       WCI = WIND CHILL INDEX
       VSB = VISIBILITY
       HX  = HEAT INDEX
$$



USA.gov is the U.S. government's official web portal to all federal, state and local government web resources and services.